THY3BP LTFM-EDDN

Flight info

Callsign THY3BP
Flight time N/A
Altitude 36000
Route VADEN N618 BAKLO DCT XANEX DCT UTEKA DCT BABIT DCT NIKAB DCT SUNIS DCT NURMI DCT LIDSI DCT SUBEN/N0460F300 T161 AKINI/N0421F240 Z109 UPALA UPALA1T
Aircraft B738/M-SDE2E3FGHIRWXY/LB1

Departure

Time 2026-02-18 22:32
Airport İstanbul Airport (LTFM)

Arrival

Time N/A
Airport Nuremberg Airport (EDDN)
Time Latitude Longitude Altitude Speed Heading
2026-02-18 21:59 41.26355 28.73880 333 ft 0 kts 198°
2026-02-18 22:13 41.26355 28.73881 333 ft 0 kts 198°
2026-02-18 22:13 41.26355 28.73880 333 ft 0 kts 198°
2026-02-18 22:14 41.26365 28.73885 333 ft 3 kts 204°
2026-02-18 22:14 41.26383 28.73898 328 ft 3 kts 221°
2026-02-18 22:15 41.26396 28.73918 328 ft 3 kts 237°
2026-02-18 22:15 41.26405 28.73941 329 ft 3 kts 251°
2026-02-18 22:15 41.26410 28.73967 329 ft 3 kts 262°
2026-02-18 22:15 41.26412 28.73990 329 ft 1 kts 266°
2026-02-18 22:16 41.26412 28.73993 329 ft 2 kts 266°
2026-02-18 22:20 41.26412 28.73980 328 ft 4 kts 267°
2026-02-18 22:20 41.26437 28.73929 330 ft 10 kts 328°
2026-02-18 22:20 41.26517 28.73889 333 ft 13 kts 343°
2026-02-18 22:21 41.26739 28.73874 329 ft 18 kts
2026-02-18 22:21 41.26865 28.73867 331 ft 9 kts 356°
2026-02-18 22:21 41.26933 28.73861 329 ft 13 kts 358°
2026-02-18 22:22 41.27028 28.73848 331 ft 12 kts 325°
2026-02-18 22:22 41.27049 28.73715 332 ft 18 kts 272°
2026-02-18 22:22 41.27047 28.73563 331 ft 13 kts 269°
2026-02-18 22:22 41.27045 28.73426 329 ft 8 kts 269°
2026-02-18 22:23 41.27045 28.73378 333 ft 3 kts 269°
2026-02-18 22:23 41.27044 28.73348 333 ft 6 kts 269°
2026-02-18 22:23 41.27044 28.73285 333 ft 10 kts 269°
2026-02-18 22:23 41.27042 28.73189 333 ft 10 kts 268°
2026-02-18 22:24 41.27087 28.73102 331 ft 16 kts 350°
2026-02-18 22:24 41.27200 28.73098 332 ft 15 kts 359°
2026-02-18 22:24 41.27314 28.73096 329 ft 18 kts 359°
2026-02-18 22:24 41.27454 28.73092 330 ft 23 kts
2026-02-18 22:25 41.27665 28.72971 332 ft 19 kts 356°
2026-02-18 22:25 41.27816 28.72968 331 ft 25 kts 359°
2026-02-18 22:25 41.28006 28.72963 333 ft 29 kts 359°
2026-02-18 22:26 41.28209 28.72957 331 ft 29 kts 359°
2026-02-18 22:26 41.28410 28.72953 332 ft 27 kts 359°
2026-02-18 22:26 41.28597 28.72949 330 ft 28 kts 359°
2026-02-18 22:26 41.28797 28.72945 329 ft 27 kts 359°
2026-02-18 22:27 41.28959 28.72941 333 ft 23 kts 358°
2026-02-18 22:27 41.29120 28.72937 332 ft 20 kts 359°
2026-02-18 22:27 41.29261 28.72934 330 ft 19 kts 359°
2026-02-18 22:27 41.29373 28.72932 333 ft 14 kts 359°
2026-02-18 22:28 41.29418 28.72931 330 ft 8 kts 356°
2026-02-18 22:28 41.29467 28.72920 329 ft 8 kts 333°
2026-02-18 22:28 41.29485 28.72890 333 ft 2 kts 294°
2026-02-18 22:28 41.29487 28.72875 332 ft 1 kts 278°
2026-02-18 22:29 41.29489 28.72852 333 ft 2 kts 275°
2026-02-18 22:29 41.29490 28.72819 331 ft 6 kts 273°
2026-02-18 22:29 41.29490 28.72735 332 ft 12 kts 267°
2026-02-18 22:30 41.29488 28.72612 333 ft 13 kts 271°
2026-02-18 22:30 41.29486 28.72491 333 ft 9 kts 252°
2026-02-18 22:30 41.29468 28.72468 332 ft 2 kts 202°
2026-02-18 22:30 41.29442 28.72465 329 ft 0 kts 181°
2026-02-18 22:31 41.29441 28.72465 329 ft 1 kts 181°
2026-02-18 22:31 41.29263 28.72466 332 ft 61 kts 179°
2026-02-18 22:31 41.28599 28.72479 330 ft 128 kts 179°
2026-02-18 22:32 41.27557 28.72462 615 ft 157 kts 185°
2026-02-18 22:32 41.26467 28.72417 1787 ft 156 kts 187°
2026-02-18 22:32 41.25391 28.72359 2621 ft 157 kts 183°
2026-02-18 22:32 41.24204 28.72438 2979 ft 188 kts 180°
2026-02-18 22:33 41.21365 28.72470 3847 ft 211 kts 200°
2026-02-18 22:33 41.20075 28.71548 4511 ft 216 kts 219°
2026-02-18 22:33 41.18899 28.70113 4857 ft 240 kts 226°
2026-02-18 22:34 41.18070 28.68195 5634 ft 246 kts 258°
2026-02-18 22:34 41.18004 28.65900 6496 ft 252 kts 268°
2026-02-18 22:34 41.18017 28.63548 7280 ft 256 kts 268°
2026-02-18 22:34 41.18014 28.61176 8097 ft 259 kts 267°
2026-02-18 22:35 41.18276 28.58787 8889 ft 269 kts 289°
2026-02-18 22:35 41.19338 28.56702 9698 ft 281 kts 314°
2026-02-18 22:35 41.21085 28.55428 10337 ft 299 kts 342°
2026-02-18 22:35 41.23246 28.55167 10575 ft 326 kts 357°
2026-02-18 22:36 41.25604 28.55183 10777 ft 350 kts 358°
2026-02-18 22:36 41.28110 28.55188 10952 ft 371 kts 358°
2026-02-18 22:36 41.30836 28.55164 11118 ft 392 kts 358°
2026-02-18 22:36 41.33645 28.55412 11536 ft 404 kts
2026-02-18 22:37 41.39254 28.56420 12885 ft 410 kts
2026-02-18 22:37 41.42095 28.56884 13557 ft 413 kts
2026-02-18 22:38 41.47828 28.57300 14721 ft 418 kts 357°
2026-02-18 22:38 41.50737 28.57172 15305 ft 420 kts 356°
2026-02-18 22:38 41.53673 28.57020 15885 ft 423 kts 356°
2026-02-18 22:39 41.59601 28.56807 16938 ft 431 kts 357°
2026-02-18 22:39 41.62614 28.56741 17456 ft 434 kts 358°
2026-02-18 22:39 41.65648 28.56683 17985 ft 437 kts 357°
2026-02-18 22:39 41.68697 28.56481 18469 ft 439 kts 348°
2026-02-18 22:40 41.73967 28.52683 19323 ft 435 kts 311°
2026-02-18 22:40 41.75702 28.49460 19807 ft 432 kts 296°
2026-02-18 22:40 41.76774 28.45666 20228 ft 431 kts 279°
2026-02-18 22:41 41.77235 28.37703 21031 ft 434 kts 271°
2026-02-18 22:41 41.77404 28.33647 21453 ft 437 kts 272°
2026-02-18 22:41 41.77605 28.29581 21854 ft 439 kts 272°
2026-02-18 22:42 41.77822 28.25492 22223 ft 442 kts 272°
2026-02-18 22:42 41.78080 28.21363 22594 ft 445 kts 277°
2026-02-18 22:42 41.78955 28.17390 22935 ft 452 kts 294°
2026-02-18 22:42 41.80551 28.13718 23359 ft 455 kts 300°
2026-02-18 22:43 41.82252 28.10120 23640 ft 459 kts 300°
2026-02-18 22:43 41.83922 28.06477 23875 ft 462 kts 299°
2026-02-18 22:43 41.85460 28.02674 24143 ft 462 kts 289°
2026-02-18 22:43 41.86199 27.98517 24413 ft 460 kts 273°
2026-02-18 22:44 41.86335 27.94224 24714 ft 460 kts 270°
2026-02-18 22:44 41.86420 27.89912 24959 ft 463 kts 270°
2026-02-18 22:44 41.86513 27.85580 25200 ft 466 kts 270°
2026-02-18 22:44 41.86623 27.81230 25473 ft 467 kts 270°
2026-02-18 22:45 41.86881 27.72477 25992 ft 470 kts 270°
2026-02-18 22:45 41.87017 27.68101 26343 ft 469 kts 270°
2026-02-18 22:45 41.87151 27.63743 26731 ft 467 kts 270°
2026-02-18 22:46 41.87282 27.59385 27077 ft 467 kts 270°
2026-02-18 22:46 41.87409 27.55032 27388 ft 467 kts 270°
2026-02-18 22:46 41.87871 27.50713 27693 ft 472 kts 285°
2026-02-18 22:46 41.89219 27.46687 28060 ft 476 kts 301°
2026-02-18 22:47 41.91311 27.43215 28390 ft 480 kts 310°
2026-02-18 22:47 41.93630 27.39969 28695 ft 481 kts 312°